Regional Weather Roundup
Issued by NWS Sioux Falls, SD

Home | Current Version | Previous Version | Text Only | Print | Product List | Glossary On
Versions: 1 2 3 4 5 6 7 8 9 10 11 12 13 14 15 16 17 18 19 20 21 22 23 24 25 26 27 28 29 30 31 32 33 34 35 36 37 38 39 40 41 42 43 44 45 46 47 48 49 50
000
ASUS43 KFSD 010510
RWRFSD

WEATHER ROUNDUP FOR SE SOUTH DAKOTA/SW MINNESOTA/NW IOWA
NATIONAL WEATHER SERVICE SIOUX FALLS SD
1200 AM CDT WED JUL 01 2015

NOTE: "FAIR" INDICATES FEW OR NO CLOUDS BELOW 12,000 FEET WITH NO
SIGNIFICANT WEATHER AND OR OBSTRUCTIONS TO VISIBILITY.


SDZ038>040-050-052>070-010600-
SOUTHEAST SOUTH DAKOTA

CITY           SKY/WX    TMP DP  RH WIND       PRES   REMARKS
CHAMBERLAIN    MOCLDY    65  64  96 SE7       29.88S
HURON          FOG       68  68 100 CALM      29.88S VSB 1/4
MADISON        MOCLDY    64  64 100 E6        29.92S
MITCHELL       NOT AVBL
SIOUX FALLS    PTCLDY    68  64  87 E8        29.89S
$$

MNZ071-072-080-081-089-090-097-098-010600-
SOUTHWEST MINNESOTA

CITY           SKY/WX    TMP DP  RH WIND       PRES   REMARKS
JACKSON        PTCLDY    64  61  88 E7        29.93F
LUVERNE        PTCLDY    66  63  88 E5        29.90F
MARSHALL       NOT AVBL
MONTEVIDEO     PTCLDY    64  61  88 CALM      29.93S
PIPESTONE      PTCLDY    64  61  88 SE3       29.93R
TRACY          MOCLDY    65  62  88 CALM      29.93R
WINDOM         PTCLDY    63  59  88 CALM      29.92F
$$

IAZ001>003-012>014-020>022-031-032-NEZ013-014-SDZ071-010600-
NORTHWEST IOWA

CITY           SKY/WX    TMP DP  RH WIND       PRES   REMARKS
CHEROKEE       MOCLDY    66  65  96 E5        29.89F
DENISON        MOCLDY    68  66  94 CALM      29.89F FOG
LE MARS        MOCLDY    70  68  94 VRB3G12   29.88F
ORANGE CITY    PTCLDY    64  63  94 E6        29.89F
SHELDON        PTCLDY    64  64 100 E9        29.89F
SIOUX CITY     NOT AVBL
SPENCER        NOT AVBL
STORM LAKE     MOCLDY    66  63  88 E8        29.92S
$$

ABBREVIATIONS USED IN REMARKS
   TC - TEMPERATURE IN CELSIUS
  WCI - WIND CHILL INDEX
   HX - HEAT INDEX
  VSB - VISIBILITY




USA.gov is the U.S. government's official web portal to all federal, state and local government web resources and services.